Погода в Каменском

Россия / Тульская область     53°10′53″N   37°47′14″E
темп.,
°C
ветер,
м/с
пор.,
м/с
влажн.,
%
обл.,
%
осадки,
мм/ч
давл.,
гПа
погр.,
м
23 апреля, пт
пт2300:00+8ю4118651 0.0 1018213
03:00+7ю4118778 0.0 1018215
06:00+6ю4118793 0.0 1018224
09:00+12ю6116445 0.0 1017571
12:00+15ю8114982 0.0 10162245
15:00+14ю7115877 0.3 10151606
18:00+13ююз5865100 0.6 1013784
21:00+9зюз5988100 2.6 1013453
24 апреля, сб
сб2400:00+8юв259485 0.9 1010218
03:00+5зсз5793100 4.1 1010556
06:00+4зсз61096100 2.1 1010572
09:00+6зсз5774100 2.3 10091064
12:00+8з575994 0.7 10091529
15:00+8зюз91060100 1.8 10091599
18:00+6з785994 0.4 10091328
21:00+4з71072100 0.4 1010812
25 апреля, вс
вс2500:00+1з91596100 0.3 1011763
03:00+1з81485100 0.4 1013792
06:000з613855 0.0 1014508
09:00+4зюз711685 0.0 10151104
12:00+7зюз81147100 0.0 10152232
15:00+8зюз71144100 0.0 10142676
18:00+6юз7126515 0.2 10131392
21:00+4зюз610829 0.5 1013740
26 апреля, пн
пн2600:00+3зюз48776 0.0 1014652
03:00+1зюз48905 0.0 1015241
06:000зюз37855 0.0 1015237
09:00+4зюз45645 0.0 1014927
12:00+7зюз5650100 0.6 10131777
15:00+8зюз564695 1.4 10121819
18:00+8з354675 0.1 10112144
21:00+4сз226465 0.1 101211
27 апреля, вт
вт2700:00+3з2370100 0.0 101147
03:00+2з4689100 0.1 1011278
06:00+1зсз3499100 2.3 1011128
09:00+2зюз4692100 2.9 1012422
12:00+6з6860100 0.4 10111562
15:00+7зюз674998 0.9 10101948
18:00+6зюз686389 0.9 10111032
21:00+3з49805 1.1 1013215